Location: Burg
(43.1901°N, 0.3251°E)
Time: 02:33:05
(UTC+00:00)

Daily predictions for brighter satellites

Satellite Brightness Start Highest point End
(mag) Time Altitude Azimuth Time Altitude Azimuth Time Altitude Azimuth
Cosmos 2297 Rocket 4.0 00:05:39 10° N 00:10:18 25° NE 00:14:54 10° ESE
Cosmos 1782 3.9 00:08:49 10° N 00:11:51 33° ENE 00:11:51 33° ENE
SL-08 ROCKET BODY 4.3 00:11:57 56° S 00:13:20 90° WSW 00:19:20 10° N
NOSS 3-4 (A) 4.1 00:06:43 10° NW 00:13:34 54° WSW 00:15:34 44° SSW
NOSS 3-4 (C) 4.1 00:06:47 10° NW 00:13:39 55° WSW 00:15:40 44° SSW
Cosmos 1975 Rocket 4.4 00:14:30 28° W 00:14:58 29° WNW 00:18:46 10° NNW
BREEZE-M DEB (TANK) 4.3 00:11:38 10° W 00:15:35 56° N 00:29:54 10° ENE
Cosmos 2058 3.3 00:18:00 52° ENE 00:18:00 52° ENE 00:21:24 10° NNE
Cosmos 1818 3.5 00:13:27 10° NW 00:18:50 63° WSW 00:19:09 61° SW
Cosmos 44 3.1 00:19:22 69° WNW 00:19:28 69° NW 00:23:50 10° NNE
Cosmos 2228 4.0 00:22:29 10° NNW 00:25:54 34° WNW 00:25:54 34° WNW
Cosmos 1680 Rocket 3.9 00:26:29 10° NNW 00:31:42 59° ENE 00:33:13 42° ESE
RESURS DK-1 4.3 00:29:53 10° N 00:33:09 24° NE 00:34:58 17° E
Cosmos 1697 Rocket 4.3 00:32:50 20° ESE 00:33:53 22° E 00:38:04 10° NE
H-2A R/B 3.5 00:34:14 32° E 00:34:30 33° ENE 00:37:55 10° N
Cosmos 1656 3.7 00:33:45 54° SSE 00:34:37 62° ESE 00:40:07 10° NNE
Cosmos 923 Rocket 3.8 00:33:56 10° NNW 00:39:09 88° WSW 00:39:56 65° SSE
Cosmos 2227 Rocket 4.4 00:37:22 10° N 00:41:41 22° NE 00:45:58 10° E
Cosmos 1400 Rocket 3.5 00:40:27 10° NNW 00:43:29 44° WNW 00:43:29 44° WNW
EO 1 Delta rocket 4.2 00:46:45 47° WSW 00:46:55 47° W 00:51:23 10° NNW
Cosmos 1937 Rocket 3.8 00:47:15 47° WSW 00:48:17 56° WNW 00:53:21 10° NNE
ISS -0.9 00:50:36 10° NW 00:53:08 19° N 00:55:39 10° NE
H-2A R/B 4.4 00:55:09 10° ENE 00:57:00 13° E 00:58:11 11° ESE
Cosmos 1441 Rocket 4.3 00:58:03 32° E 00:58:03 32° E 01:00:54 10° NNE
Cosmos 2315 Rocket 4.0 00:52:41 10° N 00:59:06 85° W 01:01:14 46° S
DELTA 2 R/B (1) 4.0 01:07:24 42° SSE 01:07:24 42° SSE 01:12:10 10° E
Cosmos 1933 3.3 01:03:08 10° N 01:07:00 71° E 01:07:01 71° E
Meteor 2-3 Rocket 3.9 01:10:11 44° SSE 01:12:01 70° E 01:17:49 10° NNE
CZ-2C R/B 2.6 01:11:03 51° S 01:12:24 73° WSW 01:17:57 10° NNW
DNEPR-1 R/B 3.6 01:08:23 10° NW 01:12:14 59° W 01:12:14 59° W
Orbus 7S? 4.5 01:17:40 40° SSE 01:18:28 43° ESE 01:26:08 10° NE
Cosmos 1655 Rocket 4.2 01:20:19 41° SW 01:22:33 65° W 01:28:56 10° N
Cosmos 1606 Rocket 4.2 01:19:09 10° NNW 01:23:12 40° W 01:23:12 40° W
Cosmos 2058 Rocket 3.2 01:20:01 10° N 01:24:25 72° E 01:25:27 50° SSE
Cosmos 1315 Rocket 3.0 01:20:50 10° N 01:24:36 59° ENE 01:25:07 53° ESE
IDEFIX/ARIANE 42P 2.8 01:25:20 10° NNE 01:30:29 61° E 01:32:15 39° SSE
CZ-2C R/B 3.6 01:33:22 10° N 01:37:54 41° WNW 01:39:09 34° WSW
Cosmos 2360 4.4 01:36:32 38° SW 01:38:39 62° WNW 01:44:19 10° NNE
CZ-4C R/B 4.1 01:37:15 10° W 01:40:48 21° NNW 01:45:02 10° NNE
Meteor 1-26 Rocket 4.2 01:36:19 10° N 01:41:43 72° E 01:44:35 28° SSE
ADEOS II 3.9 01:42:21 10° NE 01:46:30 23° E 01:50:13 12° SE
Cosmos 2263 Rocket 3.8 01:42:39 10° N 01:47:45 33° NE 01:52:48 10° ESE
Cosmos 494 Rocket 4.2 01:42:54 10° NNW 01:47:58 51° WSW 01:49:10 42° SW
Cosmos 2297 Rocket 2.3 01:49:09 10° NNW 01:54:40 55° WSW 01:56:44 35° SSW
CZ-2D R/B 3.0 01:53:02 10° NNE 01:58:00 41° E 02:01:07 20° SSE
MOZ.5/SAFIR/RUBIN 5/SL-8 3.7 01:56:35 31° SSE 01:58:47 86° ENE 02:03:27 10° NNW
BREEZE-M DEB (TANK) 2.9 01:59:53 10° NW 02:02:19 38° NNE 02:04:28 10° E
Cosmos 1758 Rocket 3.4 02:05:25 40° S 02:06:57 89° WNW 02:11:22 10° N
Cosmos 1602 Rocket 3.8 02:05:12 31° SSE 02:07:03 61° E 02:11:19 10° NNE
Cosmos 1980 Rocket 2.5 02:05:14 28° S 02:08:06 57° ESE 02:13:35 10° NNE
H-2A R/B 4.1 02:09:35 16° W 02:09:35 16° W 02:11:25 10° NW
Tiangong -1.2 02:10:34 36° SE 02:10:34 36° SE 02:13:11 10° E
RESURS DK-1 3.2 02:07:06 10° NW 02:10:15 30° W 02:10:15 30° W
Resurs 1-4 Rocket 2.4 02:07:04 10° NNE 02:12:20 61° ESE 02:15:35 23° S
Cosmos 1626 Rocket 3.7 02:12:06 39° SW 02:13:29 59° W 02:17:48 10° N
SeaSat 1 2.5 02:11:34 28° S 02:14:04 58° WSW 02:18:54 10° NW
Nadezhda 1 Rocket 4.0 02:08:06 10° N 02:14:24 88° E 02:19:10 18° S
Meteor 2-2 Rocket 4.4 02:09:11 10° NNW 02:14:39 53° W 02:17:16 29° SSW
Cosmos 468 4.4 02:10:20 10° NNW 02:15:41 82° WSW 02:19:48 17° SSE
Cosmos 1745 Rocket 4.0 02:12:26 24° S 02:16:25 86° E 02:22:49 10° N
Cosmos 1697 Rocket 3.0 02:14:32 28° SW 02:17:22 57° WNW 02:22:57 10° NNE
H-2A R/B 4.4 02:18:17 10° NE 02:21:15 16° E 02:24:11 10° SE
BlueWalker 3 3.8 02:20:17 10° NW 02:23:36 31° NNE 02:26:54 10° E
Cosmos 614 Rocket 4.1 02:19:05 10° NNW 02:24:09 71° ENE 02:29:11 10° SSE
FENGYUN 3A 3.6 02:19:29 10° N 02:24:53 75° WNW 02:27:59 26° SSW
Cosmos 2227 Rocket 2.1 02:20:36 10° NNW 02:26:14 67° WSW 02:31:20 13° SSE
MSX 4.3 02:22:42 10° N 02:28:12 49° WNW 02:31:23 24° SW
Cosmos-2242 3.9 02:24:51 10° NNW 02:28:31 30° W 02:29:26 27° WSW
ISS -2.4 02:27:16 10° NW 02:30:28 41° NNE 02:33:40 10° E
Cosmos 1709 Rocket 4.1 02:25:56 19° S 02:30:45 81° E 02:37:07 10° N
Okean 1 3.0 02:28:52 10° NNW 02:32:36 75° W 02:34:28 28° S
H-2A R/B 2.2 02:28:38 10° N 02:32:44 58° WNW 02:34:42 29° SW
Cosmos 1932 4.5 02:31:45 24° SW 02:35:40 78° NW 02:42:04 10° NNE
Okean 1-7 Rocket 3.5 02:35:08 26° SSW 02:37:38 80° W 02:42:07 10° N
ATLAS 2AS CENTAUR R/B 3.4 02:31:53 10° NNW 02:38:32 55° NE 02:45:05 10° SE
SL-23 DEB 4.1 02:37:57 30° S 02:38:54 39° SE 02:42:07 10° ENE
USA 290 3.6 02:36:32 10° N 02:39:40 40° ENE 02:42:46 10° SE
NPP 4.5 02:39:31 10° N 02:44:27 37° WNW 02:47:39 19° WSW
ALOS 2.3 02:41:03 10° NNE 02:45:39 78° ESE 02:49:03 18° S
Cosmos 1743 3.4 02:45:31 14° SSE 02:48:07 42° E 02:51:19 10° NNE
Cosmos 2221 2.4 02:45:05 10° NNW 02:49:19 66° W 02:52:32 17° S
Cosmos 1125 Rocket 4.2 02:46:24 20° WSW 02:49:35 41° WNW 02:54:33 10° N
Cosmos 192 4.4 02:46:47 22° SSW 02:49:54 70° WNW 02:54:50 10° NNE
Cosmos 2298 Rocket 4.0 02:48:25 19° SSW 02:52:17 87° ESE 02:57:38 10° NNE
DELTA 2 R/B (1) 3.6 02:48:04 13° WSW 02:52:56 61° S 02:58:27 10° E
Cosmos 2151 3.0 02:51:45 22° SSW 02:54:16 60° W 02:58:24 10° N
Cosmos 1953 Rocket 3.9 02:56:52 11° S 03:01:01 66° E 03:05:21 10° NNE
Cosmos 2322 Rocket 4.4 02:58:29 10° SE 03:02:30 20° E 03:06:31 10° NE
Cosmos 2369 3.7 03:01:07 17° SSW 03:05:36 82° WNW 03:11:18 10° NNE
Cosmos 2333 Rocket 4.2 03:03:06 10° SSE 03:07:32 24° ESE 03:11:58 10° NE
Meteor 1-19 Rocket 4.1 03:02:41 10° NNW 03:08:08 83° W 03:13:42 10° S
IDEFIX/ARIANE 42P 4.3 03:05:54 10° NNW 03:09:28 19° WNW 03:12:56 10° WSW
Cosmos 1812 Rocket 4.5 03:06:17 10° NNW 03:10:09 31° W 03:12:55 16° SW
Lacrosse 5 rocket 3.6 03:09:37 10° NNW 03:13:02 27° NNE 03:16:22 10° E
Meteor 1-20 Rocket 4.3 03:08:15 12° SSW 03:13:44 75° W 03:19:34 10° N
Meteor 1-28 Rocket 3.9 03:11:05 10° SSE 03:14:20 48° ENE 03:17:36 10° N
Cosmos 2082 3.7 03:10:32 10° NNW 03:16:15 82° WSW 03:21:52 10° SSE
USA 234 3.6 03:11:35 10° NE 03:18:01 60° SE 03:24:13 11° SSW
Cosmos 1707 3.9 03:18:28 10° N 03:21:34 37° ENE 03:24:37 10° SSE
Cosmos 921 Rocket 3.1 03:20:18 10° NNW 03:24:39 58° WSW 03:28:55 10° S
Cosmos 2219 3.3 03:19:14 10° NNW 03:24:45 53° WSW 03:30:12 10° S
CZ-3 R/B 4.1 02:48:34 10° WSW 03:25:12 48° S 03:35:25 10° ESE
Cosmos 1733 2.8 03:22:44 10° S 03:25:42 69° E 03:28:42 10° NNE
Cosmos 1825 Rocket 4.2 03:22:38 14° SW 03:26:01 37° WNW 03:30:04 10° N
ADEOS II 2.6 03:21:17 10° N 03:26:15 46° WNW 03:31:02 11° SW
SL-16 R/B 2.8 03:21:29 10° S 03:26:59 55° ESE 03:32:31 10° NNE
Envisat 3.3 03:23:27 10° N 03:28:21 51° WNW 03:33:15 10° SW
SL-16 R/B 2.6 03:22:36 10° SSE 03:28:51 81° WSW 03:35:10 10° NNW
Cosmos 1238 Rocket 4.3 03:24:51 10° NNW 03:29:36 34° W 03:34:12 10° SSW
Cosmos 2263 Rocket 2.7 03:26:30 10° NW 03:31:41 38° WSW 03:36:48 10° S
METEOR-M 4.2 03:31:11 10° N 03:36:31 75° WNW 03:41:49 10° SSW
CZ-2D R/B 3.3 03:33:26 10° N 03:37:46 27° WNW 03:42:03 10° WSW
KORONAS-FOTON 3.6 03:34:46 10° N 03:38:19 86° E 03:41:50 10° S
Gbstr 26 Del rocket 4.3 03:31:40 10° WNW 03:38:22 60° SW 03:45:58 10° SE
Cosmos 1076 Rocket 3.8 03:34:30 10° SSW 03:38:40 49° WNW 03:42:50 10° N
DMSP B5D2-2 4.4 03:35:17 10° S 03:40:19 47° W 03:45:22 10° NNW
H-2A R/B 3.3 03:41:42 10° NNE 03:45:37 86° ESE 03:49:28 10° SSW
OAO 2 Rocket 4.3 03:41:35 10° SW 03:45:57 31° S 03:50:25 10° ESE
ARGOS Delta rocket 4.3 03:41:17 10° NNE 03:46:40 73° E 03:51:47 10° S
Tiangong -2.0 03:43:42 10° W 03:46:58 65° S 03:50:13 10° E
Meteor 1-27 Rocket 4.0 03:41:45 10° NNW 03:47:34 58° W 03:53:20 10° S
Cosmos 2074 Rocket 4.0 03:44:03 10° SSW 03:50:13 75° W 03:56:28 10° N
Cosmos 2237 4.4 03:45:11 10° SW 03:50:49 65° WNW 03:56:29 10° NNE
Resurs 1-4 Rocket 3.7 03:47:55 10° NNW 03:51:37 20° WNW 03:55:19 10° WSW
Cosmos 44 Rocket 4.2 03:48:02 10° S 03:52:25 43° ESE 03:56:53 10° NE
Cosmos 1980 Rocket 3.7 03:47:59 10° WSW 03:52:27 24° NW 03:56:57 10° N
